Home   Weather   Kagoshima   Past weeks

Flag for Japan Past Weather in Kagoshima, Japan — Yesterday and Last 2 Weeks

Now
53 °F

Cool.


Feels Like: 51 °F
Forecast: 42 / 51 °F
Wind: 6 mph from North

Location: Kagoshima

Current Time: Jan 19, 2017 at 11:46:02 am

Latest Report: Jan 19, 2017 at 10:00 am


Visibility: N/A

Pressure: 30.18 "Hg

Humidity: 78%

Dew Point: 46 °F

Location of KagoshimaLocation

Past Weather in Kagoshima — Graph

°F

Kagoshima Temperature Yesterday

Maximum temperature yesterday: 53 °F (at 4:00 pm)
Minimum temperature yesterday: 46 °F (at 4:00 am)
Average temperature yesterday: 49 °F

High & Low Weather Summary for the Past Weeks

 TemperatureHumidityPressure
High67 °F (Jan 8, 1:00 pm)96% (Jan 8, 9:00 am)30.42 "Hg (Jan 8, 9:00 am)
Low32 °F (Jan 16, 7:00 am)30% (Jan 16, 4:00 pm)29.68 "Hg (Jan 8, 7:00 am)
Average49 °F67%30.11 "Hg
* Reported Jan 4 10:00 am — Jan 19 10:00 am, Kagoshima, Weather by CustomWeather, © 2017

Note: Actual official high and low records may vary slightly from our data, if they occured in-between our weather recording intervals... More about our weather records

Advertising

Kagoshima Weather History for the Previous 24 Hours

Scroll right to see more
 ConditionsComfort  
Time TempWeatherWind HumidityBarometerVisibility
10:00 am
Thu, Jan 19
53 °FCool.6 mph78%30.18 "HgN/A
9:00 am49 °FPartly sunny.6 mph87%30.16 "Hg9 mi
8:00 am49 °FCool.7 mph91%30.17 "HgN/A
7:00 am48 °FCool.3 mph94%30.18 "HgN/A
6:00 am47 °FOvercast.7 mph95%30.17 "Hg16 mi
5:00 am48 °FCool.5 mph95%30.16 "HgN/A
4:00 am49 °FCool.5 mph92%30.17 "HgN/A
3:00 am48 °FOvercast.8 mph94%30.18 "Hg12 mi
2:00 am49 °FCool.7 mph94%30.18 "HgN/A
1:00 am49 °FCool.8 mph93%30.19 "HgN/A
12:00 am50 °FCool.7 mph96%30.21 "HgN/A
11:00 pm
Wed, Jan 18
51 °FCool.6 mph94%30.23 "HgN/A
10:00 pm51 °FCool.5 mph94%30.25 "HgN/A
9:00 pm50 °FOvercast.6 mph95%30.25 "Hg9 mi
8:00 pm51 °FCool.10 mph95%30.25 "HgN/A
7:00 pm51 °FCool.10 mph90%30.25 "HgN/A
6:00 pm52 °FLight rain. Overcast.9 mph86%30.24 "Hg12 mi
5:00 pm52 °FCool.6 mph90%30.24 "HgN/A
4:00 pm53 °FCool.13 mph86%30.22 "HgN/A
3:00 pm52 °FLight rain. Overcast.10 mph87%30.24 "Hg9 mi
2:00 pm52 °FCool.8 mph87%30.26 "HgN/A
1:00 pm52 °FCool.6 mph84%30.28 "HgN/A
12:00 pm52 °FOvercast.8 mph81%30.31 "Hg12 mi
11:00 am51 °FCool.9 mph84%30.34 "HgN/A
Weather by CustomWeather, © 2017

See weather overviewHow to use our weather pages